OPS 4682 DEB, 18534

Orbit data source: Space-Track

OPS 4682 DEB, 18534 is space debris in LEO originally from a launch on Sat, 03 Apr 1965 UTC launched from the Air Force Western Test Range (AFWTR). Debris objects in space refer to the collection of defunct objects orbiting the Earth. Examples of debris include non-operational satellites, rocket bodies, and fragments generated from explosions, collisions, or faulty payload assembly.

Loading next visibility...
Identifier
18534, 1965-027AE
Orbit
LEO
Country
Flag of USUS
Related business
Manufacturer
Unknown
Mission
Spacecraft
Bus & Motor
Unknown
Mass
Unknown
Launch date (UTC)
1965-04-03 (61 years ago)
Launch vehicle
Unknown
Launch site
Air Force Western Test Range (AFWTR)
Object type
Payload
Rocket body
Debris
Shape & HBR
Unknown shape, 0.1 m
Radar Cross Section
Medium (>0.1 m² and <1 m²)

Expand to show TLE details & history
Last TLE update: 19 hours ago

TLE from 19 hours ago
0 OPS 4682 DEB
1 18534U 65027AE  26236.40422278  .00000382  00000-0  13125-2 0  9996
2 18534  90.2787  25.6878 0026849 289.5415  97.2252 12.96212827849834
Epoch: 2026-08-24T09:42Z
TLE epoch observation values (Epoch: 2026-08-24T09:42:04.848Z)
Latitude
27.10571°
Longitude
-92.66075°
Altitude
1,282.909 km
Speed
7.216 km/s
True Right ascension
01h 42m 11s
True Declination
26° 58' 34"
Sunlit
Object was in daylight at epoch
Visualization orbit readout
Latitude
Unknown
Longitude
Unknown
Altitude
Unknown
Speed
Unknown
Apparent Right ascension
Unknown
Apparent Declination
Unknown
Sunlit
N/A
Visualization observer readout
Local Sidereal Time
19:26:43
Azimuth
Unknown
Elevation
Unknown
Doppler factor
Unknown
Orbital elements
Apogee altitude
1,294.639 km
Perigee altitude
1,253.548 km
Semi-major axis
7,652.231 km
Eccentricity
0.00268
Inclination
90.2787°
RAAN
25.6878°
Arg. of periapsis
289.5415°
True anomaly
97.53029°
Mean anomaly
97.2252°
Eccentric anomaly
97.37776°
Mean motion
3.24236 °/min
Orbital period
111.03 mins
BSTAR
0.0013125
Loading maneuver chart data...
Computing Atmospheric mass density...
Loading historical data...
Loading historical data...
Loading historical data...
Loading historical data...
Loading historical data...
Loading historical data...
Loading historical data...

Documentation

Showing up to 5 results
|